Back to catalog

STARLINK-34806

AliveCommunicationsSSO
NORAD 65065·PAYLOAD·🇺🇸 United States

Launched Jul 31, 2025 from Vandenberg Space Force Base

Loading…

Next Passes (next 24 hours)

TLE

FreshSource: CelesTrak SupGP

Epoch: Sep 14, 2026, 23:07 UTC

1 65065C 25165K   26257.96368056  .02174600  00000+0  76246-1 0  2578
2 65065  97.2842 329.2286 0001770  90.4249 309.1753 15.28420403    19

Track STARLINK-34806 in real time with AllMySat

Download on the App Store